Regional Weather Roundup
Issued by NWS

Home | Current Version | Previous Version | Text Only | Print | Product List | Glossary Off
Versions: 1 2 3 4 5 6 7 8 9 10 11 12 13 14 15 16 17 18 19 20 21 22 23 24 25 26 27 28 29 30 31 32 33 34 35 36 37 38 39 40 41 42 43 44 45 46 47 48 49 50

813
ASUS43 KLSX 181210
RWRMO

WEATHER SUMMARY FOR MISSOURI
NATIONAL WEATHER SERVICE SPRINGFIELD MO
600 AM CST WED JAN 18 2017

NOTE: "FAIR" INDICATES FEW OR NO CLOUDS BELOW 12,000 FEET WITH NO
       SIGNIFICANT WEATHER AND/OR OBSTRUCTIONS TO VISIBILITY.
       CURRENT SKY AND/OR WEATHER CONDITIONS ARE NOT AVAILABLE FOR
       CHILLICOTHE AND FARMINGTON.

MOZ001>031-035>038-043-044-053-054-181300-
...NORTHERN AND WESTERN MISSOURI...

CITY           SKY/WX    TMP DP  RH WIND       PRES   REMARKS
KANSAS CTY INT FOG       25  23  92 S7        30.12F VSB 1/2 WCI  17
6HR MIN TEMP:  25; 6HR MAX TEMP:  31;

KANSAS C DTWN  CLOUDY    30  30 100 CALM      30.15S
6HR MIN TEMP:  23; 6HR MAX TEMP:  34;

LEE`S SUMMIT   FOG       31  31 100 S8        30.15S VSB 1/4 WCI  23
6HR MIN TEMP:  30; 6HR MAX TEMP:  34;

ST JOSEPH      FOG       27  27 100 SW3       30.13S VSB 1/4
6HR MIN TEMP:  23; 6HR MAX TEMP:  29;

CHILLICOTHE      N/A     32  32 100 SW6       30.16R WCI  26
6HR MIN TEMP:  30; 6HR MAX TEMP:  34;

KIRKSVILLE     CLOUDY    34  33  96 SW8       30.14R FOG     WCI  27
6HR MIN TEMP:  31; 6HR MAX TEMP:  35;


$$
MOZ066>068-077>081-088>096-101>105-181300-
...SOUTHWEST MISSOURI...

CITY           SKY/WX    TMP DP  RH WIND       PRES   REMARKS
SPRINGFIELD    FOG       36  35  96 CALM      30.17R VSB 1/2
6HR MIN TEMP:  35; 6HR MAX TEMP:  37;

JOPLIN         FOG       35  35 100 E8        30.17F VSB 1/4 WCI  29
6HR MIN TEMP:  35; 6HR MAX TEMP:  39;

BRANSON        FOG       36  36 100 CALM      30.19R VSB<1/4

$$
MOZ032>034-039>042-045>050-055>058-069>072-181300-
...CENTRAL MISSOURI...

CITY           SKY/WX    TMP DP  RH WIND       PRES   REMARKS
COLUMBIA       CLOUDY    36  34  92 S3        30.19S
6HR MIN TEMP:  36; 6HR MAX TEMP:  37;

JEFFERSON CITY CLOUDY    37  31  78 CALM      30.20F
6HR MIN TEMP:  37; 6HR MAX TEMP:  39;

ROLLA          CLOUDY    35  32  88 CALM      30.17S
6HR MIN TEMP:  35; 6HR MAX TEMP:  37;

SEDALIA        CLOUDY    37  35  92 SW7       30.19S FOG
6HR MIN TEMP:  37; 6HR MAX TEMP:  38;

WHITEMAN AFB   CLOUDY    36  36 100 SW7       30.16S
WARRENSBURG    CLOUDY    36  34  93 S5        30.17S FOG
OSAGE BEACH    CLOUDY    37  33  85 S5        30.21R

$$
MOZ051-052-059>065-181300-
...EAST CENTRAL MISSOURI...

CITY           SKY/WX    TMP DP  RH WIND       PRES   REMARKS
ST LOUIS INTL  CLOUDY    39  32  76 NW5       30.21R
6HR MIN TEMP:  39; 6HR MAX TEMP:  41;

SPIRIT OF STL  CLOUDY    38  33  82 SW3       30.21R
6HR MIN TEMP:  38; 6HR MAX TEMP:  40;

ST CHARLES     CLOUDY    37  33  85 W3        30.21R
6HR MIN TEMP:  37; 6HR MAX TEMP:  39;


$$
MOZ072>076-082>087-097>100-106>115-181300-
...SOUTH CENTRAL AND SOUTHEAST MISSOURI...

CITY           SKY/WX    TMP DP  RH WIND       PRES   REMARKS
CAPE GIRARDEAU CLOUDY    41  36  82 CALM      30.23R
6HR MIN TEMP:  40; 6HR MAX TEMP:  44;

FARMINGTON     CLOUDY    36  34  92 VRB3      30.20S
6HR MIN TEMP:  36; 6HR MAX TEMP:  39;

POPLAR BLUFF   CLOUDY    42  38  85 N7        30.22R
6HR MIN TEMP:  42; 6HR MAX TEMP:  43;

WEST PLAINS    CLOUDY    35  35 100 NW5       30.19R FOG
6HR MIN TEMP:  35; 6HR MAX TEMP:  38;


$$




USA.gov is the U.S. government's official web portal to all federal, state and local government web resources and services.